QPF
0.01 0.00 0.00 0.00 0.00 0.00 0.00 0.01 0.00 0.00 0.00 0.01 0.01 0.02 0.03 0.03 0.04 0.04 0.04 0.03 0.03 0.03 0.03 0.02 0.01 0.02 0.03 0.04 0.06 0.11 0.16 0.15 0.12 0.06 0.04 0.03 0.04 0.05 0.05 0.05 0.05 0.04 0.02 0.02
0.00 0.00 0.00 0.01 0.01 0.01 0.01 0.01 0.00 0.00 0.01 0.01 0.02 0.04 0.05 0.02 0.04 0.08 0.06 0.05 0.04 0.03 0.03 0.02 0.02 0.03 0.03 0.05 0.06 0.12 0.08 0.06 0.06 0.05 0.06 0.04 0.04 0.06 0.07 0.07 0.06 0.05 0.06 0.04
0.00 0.00 0.01 0.01 0.01 0.01 0.01 0.01 0.01 0.01 0.01 0.02 0.02 0.03 0.05 0.04 0.02 0.05 0.08 0.06 0.06 0.05 0.04 0.03 0.04 0.05 0.05 0.05 0.05 0.06 0.05 0.05 0.06 0.06 0.06 0.05 0.04 0.06 0.09 0.08 0.07 0.07 0.06 0.07
0.00 0.00 0.01 0.01 0.02 0.02 0.01 0.01 0.02 0.03 0.02 0.01 0.01 0.02 0.05 0.05 0.04 0.03 0.05 0.07 0.06 0.05 0.04 0.04 0.05 0.06 0.06 0.06 0.06 0.06 0.06 0.06 0.07 0.08 0.09 0.09 0.09 0.08 0.08 0.08 0.08 0.10 0.10 0.07
0.01 0.01 0.02 0.04 0.03 0.03 0.03 0.02 0.02 0.01 0.01 0.01 0.01 0.03 0.09 0.11 0.05 0.04 0.02 0.05 0.06 0.05 0.04 0.04 0.04 0.03 0.04 0.05 0.05 0.04 0.05 0.05 0.05 0.06 0.08 0.10 0.10 0.10 0.10 0.09 0.09 0.10 0.13 0.10
0.01 0.03 0.04 0.04 0.03 0.04 0.02 0.01 0.01 0.01 0.01 0.01 0.01 0.06 0.11 0.16 0.16 0.13 0.06 0.05 0.04 0.04 0.04 0.04 0.03 0.03 0.03 0.03 0.03 0.03 0.03 0.04 0.04 0.05 0.06 0.06 0.05 0.05 0.05 0.06 0.07 0.08 0.10 0.10
0.01 0.01 0.02 0.01 0.01 0.02 0.02 0.02 0.01 0.01 0.02 0.02 0.03 0.04 0.06 0.07 0.08 0.09 0.06 0.04 0.03 0.02 0.02 0.02 0.02 0.02 0.02 0.02 0.03 0.03 0.03 0.03 0.03 0.04 0.04 0.04 0.03 0.03 0.03 0.03 0.04 0.05 0.07 0.08
0.01 0.01 0.01 0.01 0.02 0.03 0.03 0.02 0.02 0.02 0.02 0.03 0.03 0.03 0.03 0.03 0.03 0.04 0.04 0.03 0.02 0.02 0.02 0.01 0.01 0.01 0.02 0.03 0.03 0.03 0.03 0.03 0.03 0.03 0.03 0.03 0.03 0.02 0.03 0.03 0.03 0.04 0.05 0.06
0.02 0.03 0.03 0.03 0.04 0.05 0.04 0.03 0.03 0.03 0.03 0.03 0.03 0.03 0.03 0.03 0.03 0.03 0.03 0.02 0.02 0.02 0.02 0.01 0.01 0.01 0.02 0.03 0.03 0.04 0.04 0.04 0.04 0.04 0.04 0.05 0.04 0.03 0.02 0.03 0.03 0.05 0.05 0.04
0.02 0.03 0.04 0.05 0.05 0.06 0.05 0.04 0.04 0.04 0.03 0.04 0.05 0.06 0.05 0.04 0.04 0.03 0.03 0.02 0.02 0.02 0.02 0.01 0.01 0.01 0.02 0.03 0.03 0.03 0.04 0.03 0.04 0.04 0.05 0.06 0.06 0.05 0.03 0.02 0.02 0.03 0.05 0.05
0.02 0.02 0.03 0.04 0.04 0.05 0.05 0.04 0.05 0.06 0.05 0.04 0.05 0.05 0.06 0.05 0.04 0.03 0.04 0.03 0.02 0.02 0.02 0.02 0.01 0.02 0.03 0.03 0.04 0.04 0.03 0.03 0.04 0.03 0.03 0.05 0.07 0.06 0.04 0.02 0.02 0.02 0.03 0.03
0.02 0.02 0.03 0.04 0.05 0.04 0.04 0.03 0.04 0.05 0.05 0.06 0.07 0.06 0.06 0.06 0.04 0.03 0.03 0.04 0.03 0.02 0.02 0.02 0.01 0.01 0.03 0.03 0.03 0.03 0.03 0.03 0.03 0.03 0.03 0.04 0.05 0.06 0.05 0.04 0.04 0.03 0.03 0.03
0.02 0.02 0.01 0.02 0.03 0.03 0.03 0.02 0.03 0.05 0.06 0.10 0.10 0.07 0.05 0.04 0.04 0.03 0.03 0.04 0.03 0.03 0.02 0.02 0.01 0.01 0.02 0.04 0.04 0.03 0.03 0.03 0.03 0.03 0.04 0.04 0.05 0.05 0.05 0.06 0.06 0.05 0.05 0.03
0.02 0.01 0.01 0.01 0.02 0.03 0.03 0.02 0.03 0.03 0.03 0.05 0.07 0.07 0.06 0.05 0.05 0.06 0.05 0.05 0.05 0.04 0.03 0.03 0.02 0.02 0.02 0.03 0.04 0.04 0.03 0.03 0.04 0.04 0.04 0.04 0.04 0.05 0.05 0.05 0.05 0.05 0.06 0.05
0.02 0.02 0.01 0.01 0.02 0.02 0.03 0.02 0.02 0.02 0.02 0.03 0.04 0.05 0.05 0.05 0.06 0.08 0.06 0.06 0.08 0.07 0.04 0.03 0.02 0.02 0.03 0.03 0.04 0.04 0.03 0.03 0.03 0.04 0.04 0.04 0.04 0.03 0.02 0.03 0.02 0.03 0.04 0.05
0.01 0.02 0.02 0.01 0.02 0.02 0.02 0.01 0.01 0.02 0.02 0.02 0.03 0.04 0.05 0.07 0.08 0.09 0.08 0.08 0.07 0.08 0.07 0.04 0.02 0.03 0.05 0.05 0.04 0.04 0.03 0.03 0.03 0.03 0.02 0.03 0.03 0.03 0.03 0.02 0.03 0.02 0.02 0.03
0.01 0.01 0.02 0.01 0.01 0.02 0.01 0.01 0.01 0.01 0.01 0.02 0.02 0.03 0.04 0.06 0.07 0.09 0.10 0.09 0.08 0.08 0.08 0.07 0.05 0.04 0.05 0.05 0.05 0.04 0.03 0.03 0.04 0.04 0.03 0.03 0.03 0.03 0.02 0.03 0.03 0.03 0.03 0.02
0.01 0.01 0.02 0.01 0.01 0.01 0.01 0.01 0.01 0.01 0.01 0.01 0.02 0.02 0.03 0.04 0.05 0.08 0.10 0.09 0.07 0.07 0.07 0.07 0.06 0.06 0.06 0.06 0.06 0.06 0.05 0.04 0.06 0.06 0.04 0.03 0.02 0.02 0.03 0.03 0.03 0.03 0.03 0.01
0.02 0.01 0.01 0.01 0.01 0.01 0.01 0.01 0.01 0.00 0.00 0.01 0.01 0.02 0.03 0.05 0.07 0.09 0.09 0.05 0.05 0.06 0.06 0.06 0.07 0.06 0.05 0.06 0.06 0.07 0.06 0.05 0.05 0.06 0.05 0.05 0.04 0.03 0.03 0.03 0.03 0.02 0.01 0.01
0.01 0.01 0.01 0.01 0.01 0.01 0.01 0.01 0.00 0.00 0.00 0.01 0.01 0.01 0.02 0.04 0.06 0.06 0.05 0.04 0.05 0.05 0.06 0.06 0.06 0.06 0.05 0.05 0.06 0.08 0.10 0.07 0.05 0.06 0.05 0.05 0.04 0.03 0.03 0.02 0.02 0.02 0.02 0.02
0.01 0.01 0.01 0.01 0.00 0.00 0.00 0.01 0.01 0.01 0.00 0.00 0.01 0.01 0.02 0.02 0.03 0.03 0.03 0.03 0.03 0.03 0.03 0.03 0.04 0.05 0.05 0.04 0.05 0.07 0.08 0.07 0.05 0.05 0.05 0.04 0.04 0.04 0.03 0.03 0.03 0.02 0.02 0.02
0.01 0.01 0.01 0.01 0.01 0.01 0.01 0.01 0.01 0.00 0.00 0.01 0.01 0.01 0.01 0.02 0.02 0.03 0.04 0.04 0.04 0.04 0.02 0.01 0.02 0.03 0.03 0.04 0.04 0.04 0.03 0.03 0.03 0.03 0.04 0.05 0.05 0.05 0.05 0.04 0.04 0.04 0.04 0.04
0.02 0.02 0.02 0.03 0.03 0.02 0.01 0.01 0.01 0.00 0.01 0.01 0.01 0.02 0.02 0.01 0.02 0.03 0.04 0.05 0.04 0.05 0.04 0.02 0.01 0.02 0.02 0.02 0.03 0.03 0.03 0.02 0.02 0.02 0.01 0.02 0.03 0.04 0.05 0.06 0.06 0.06 0.06 0.06
0.01 0.01 0.01 0.02 0.02 0.01 0.01 0.01 0.01 0.00 0.01 0.01 0.01 0.01 0.02 0.02 0.02 0.03 0.04 0.05 0.04 0.04 0.05 0.05 0.04 0.02 0.02 0.02 0.03 0.02 0.02 0.03 0.02 0.02 0.02 0.01 0.01 0.01 0.02 0.02 0.03 0.03 0.04 0.03
0.01 0.01 0.01 0.01 0.01 0.01 0.01 0.00 0.01 0.01 0.01 0.01 0.01 0.02 0.03 0.02 0.02 0.03 0.03 0.03 0.03 0.02 0.03 0.03 0.03 0.03 0.02 0.02 0.02 0.02 0.02 0.03 0.03 0.02 0.02 0.02 0.02 0.02 0.02 0.02 0.02 0.02 0.01 0.01
0.01 0.01 0.01 0.01 0.01 0.01 0.01 0.01 0.01 0.01 0.01 0.01 0.02 0.03 0.03 0.02 0.03 0.03 0.04 0.03 0.02 0.02 0.02 0.02 0.02 0.02 0.02 0.02 0.02 0.02 0.02 0.03 0.03 0.03 0.02 0.02 0.02 0.02 0.02 0.02 0.01 0.01 0.01 0.01
0.01 0.01 0.01 0.01 0.00 0.00 0.00 0.01 0.01 0.01 0.01 0.01 0.02 0.02 0.02 0.02 0.02 0.03 0.04 0.03 0.02 0.03 0.02 0.02 0.01 0.01 0.02 0.02 0.02 0.02 0.02 0.03 0.04 0.03 0.02 0.02 0.02 0.02 0.01 0.01 0.01 0.01 0.01 0.01
MSLP
1003.40 1003.80 1004.22 1004.63 1005.01 1005.33 1005.56 1005.72 1005.79 1005.79 1005.75 1005.69 1005.62 1005.55 1005.50 1005.45 1005.38 1005.29 1005.15 1004.97 1004.75 1004.52 1004.31 1004.16 1004.12 1004.21 1004.45 1004.83 1005.34 1005.94 1006.58 1007.22 1007.82 1008.36 1008.83 1009.23 1009.60 1009.96 1010.33 1010.75 1011.21 1011.71 1012.25 1012.78
1004.07 1004.43 1004.77 1005.06 1005.30 1005.49 1005.62 1005.71 1005.78 1005.85 1005.94 1006.06 1006.20 1006.36 1006.51 1006.63 1006.68 1006.65 1006.52 1006.30 1006.00 1005.67 1005.35 1005.09 1004.93 1004.91 1005.04 1005.32 1005.72 1006.21 1006.75 1007.28 1007.79 1008.25 1008.65 1009.01 1009.35 1009.71 1010.09 1010.52 1011.01 1011.53 1012.08 1012.62
1004.74 1005.08 1005.37 1005.59 1005.73 1005.82 1005.88 1005.94 1006.01 1006.14 1006.33 1006.58 1006.88 1007.20 1007.51 1007.76 1007.91 1007.95 1007.85 1007.63 1007.31 1006.93 1006.56 1006.23 1006.01 1005.91 1005.95 1006.13 1006.43 1006.81 1007.22 1007.65 1008.05 1008.42 1008.75 1009.07 1009.39 1009.73 1010.12 1010.56 1011.05 1011.58 1012.12 1012.64
1005.38 1005.72 1005.97 1006.15 1006.24 1006.28 1006.31 1006.35 1006.44 1006.61 1006.86 1007.20 1007.61 1008.03 1008.44 1008.78 1009.01 1009.11 1009.06 1008.87 1008.57 1008.21 1007.84 1007.51 1007.26 1007.12 1007.11 1007.22 1007.42 1007.69 1008.00 1008.31 1008.61 1008.90 1009.17 1009.44 1009.73 1010.06 1010.44 1010.87 1011.35 1011.85 1012.35 1012.83
1006.01 1006.34 1006.57 1006.72 1006.80 1006.83 1006.84 1006.89 1007.00 1007.20 1007.50 1007.88 1008.33 1008.81 1009.27 1009.65 1009.93 1010.08 1010.08 1009.94 1009.70 1009.40 1009.08 1008.78 1008.56 1008.43 1008.39 1008.45 1008.59 1008.78 1009.00 1009.22 1009.44 1009.65 1009.86 1010.09 1010.35 1010.65 1011.00 1011.40 1011.83 1012.28 1012.72 1013.13
1006.71 1007.00 1007.22 1007.36 1007.43 1007.47 1007.50 1007.56 1007.69 1007.90 1008.21 1008.61 1009.06 1009.54 1010.00 1010.40 1010.69 1010.86 1010.91 1010.83 1010.66 1010.44 1010.20 1009.98 1009.81 1009.71 1009.69 1009.74 1009.84 1009.97 1010.13 1010.28 1010.43 1010.59 1010.75 1010.94 1011.16 1011.42 1011.72 1012.06 1012.43 1012.80 1013.15 1013.47
1007.58 1007.83 1008.01 1008.14 1008.21 1008.25 1008.29 1008.37 1008.51 1008.72 1009.02 1009.39 1009.82 1010.26 1010.68 1011.05 1011.33 1011.52 1011.59 1011.57 1011.47 1011.33 1011.17 1011.04 1010.94 1010.90 1010.91 1010.96 1011.06 1011.16 1011.28 1011.39 1011.50 1011.61 1011.73 1011.88 1012.05 1012.25 1012.49 1012.75 1013.03 1013.30 1013.54 1013.76
1008.71 1008.90 1009.04 1009.13 1009.19 1009.23 1009.28 1009.36 1009.49 1009.69 1009.96 1010.29 1010.65 1011.03 1011.39 1011.71 1011.95 1012.12 1012.20 1012.22 1012.17 1012.10 1012.03 1011.97 1011.94 1011.95 1012.00 1012.08 1012.17 1012.28 1012.37 1012.46 1012.54 1012.62 1012.70 1012.79 1012.91 1013.05 1013.20 1013.37 1013.54 1013.70 1013.83 1013.94
1010.18 1010.28 1010.35 1010.39 1010.42 1010.44 1010.48 1010.55 1010.67 1010.84 1011.06 1011.32 1011.62 1011.92 1012.20 1012.45 1012.64 1012.78 1012.85 1012.88 1012.87 1012.84 1012.82 1012.82 1012.84 1012.89 1012.97 1013.06 1013.16 1013.26 1013.35 1013.42 1013.47 1013.52 1013.56 1013.60 1013.65 1013.71 1013.77 1013.84 1013.89 1013.94 1013.97 1013.98
1011.93 1011.94 1011.93 1011.91 1011.89 1011.88 1011.89 1011.93 1012.01 1012.14 1012.31 1012.51 1012.74 1012.96 1013.16 1013.34 1013.48 1013.57 1013.63 1013.65 1013.64 1013.64 1013.64 1013.65 1013.69 1013.76 1013.84 1013.93 1014.03 1014.11 1014.18 1014.23 1014.26 1014.27 1014.26 1014.24 1014.22 1014.19 1014.16 1014.12 1014.07 1014.01 1013.94 1013.87
1013.87 1013.78 1013.69 1013.60 1013.52 1013.46 1013.43 1013.43 1013.48 1013.56 1013.68 1013.83 1013.99 1014.14 1014.29 1014.41 1014.49 1014.55 1014.58 1014.58 1014.56 1014.55 1014.54 1014.55 1014.57 1014.62 1014.68 1014.74 1014.81 1014.86 1014.90 1014.91 1014.90 1014.87 1014.81 1014.72 1014.63 1014.51 1014.39 1014.25 1014.10 1013.95 1013.80 1013.66
1015.81 1015.64 1015.47 1015.31 1015.17 1015.06 1014.99 1014.95 1014.96 1015.01 1015.09 1015.19 1015.30 1015.42 1015.52 1015.60 1015.66 1015.69 1015.69 1015.67 1015.64 1015.60 1015.56 1015.53 1015.51 1015.51 1015.51 1015.53 1015.54 1015.55 1015.54 1015.50 1015.44 1015.35 1015.24 1015.09 1014.91 1014.72 1014.51 1014.28 1014.06 1013.83 1013.62 1013.43
1017.58 1017.35 1017.11 1016.90 1016.70 1016.55 1016.44 1016.38 1016.36 1016.38 1016.43 1016.51 1016.60 1016.69 1016.78 1016.85 1016.89 1016.91 1016.90 1016.86 1016.80 1016.73 1016.65 1016.57 1016.50 1016.43 1016.37 1016.31 1016.26 1016.20 1016.13 1016.05 1015.93 1015.79 1015.62 1015.41 1015.17 1014.90 1014.61 1014.32 1014.03 1013.75 1013.49 1013.26
1019.03 1018.76 1018.49 1018.23 1018.01 1017.83 1017.70 1017.62 1017.58 1017.59 1017.63 1017.69 1017.78 1017.87 1017.96 1018.03 1018.08 1018.10 1018.09 1018.04 1017.97 1017.86 1017.74 1017.61 1017.48 1017.34 1017.21 1017.08 1016.97 1016.84 1016.72 1016.58 1016.42 1016.23 1016.00 1015.74 1015.45 1015.13 1014.79 1014.44 1014.09 1013.77 1013.47 1013.22
1020.10 1019.81 1019.53 1019.27 1019.04 1018.86 1018.72 1018.63 1018.59 1018.59 1018.63 1018.70 1018.78 1018.88 1018.97 1019.05 1019.11 1019.15 1019.14 1019.09 1019.01 1018.88 1018.73 1018.55 1018.37 1018.17 1017.98 1017.80 1017.62 1017.45 1017.28 1017.10 1016.91 1016.68 1016.43 1016.13 1015.80 1015.44 1015.06 1014.67 1014.29 1013.93 1013.60 1013.31
1020.81 1020.53 1020.26 1020.02 1019.82 1019.65 1019.53 1019.45 1019.42 1019.42 1019.45 1019.51 1019.59 1019.68 1019.77 1019.86 1019.93 1019.96 1019.96 1019.91 1019.82 1019.68 1019.51 1019.30 1019.08 1018.85 1018.62 1018.40 1018.19 1017.99 1017.79 1017.60 1017.39 1017.15 1016.88 1016.58 1016.23 1015.85 1015.45 1015.03 1014.62 1014.22 1013.86 1013.54
1021.26 1021.02 1020.79 1020.59 1020.42 1020.30 1020.20 1020.14 1020.10 1020.10 1020.11 1020.15 1020.21 1020.28 1020.35 1020.42 1020.48 1020.50 1020.49 1020.44 1020.34 1020.20 1020.01 1019.79 1019.55 1019.30 1019.06 1018.82 1018.61 1018.40 1018.21 1018.02 1017.82 1017.59 1017.33 1017.03 1016.69 1016.30 1015.89 1015.45 1015.02 1014.59 1014.20 1013.83
1021.59 1021.39 1021.22 1021.08 1020.97 1020.88 1020.82 1020.77 1020.73 1020.70 1020.69 1020.68 1020.69 1020.71 1020.73 1020.76 1020.77 1020.77 1020.73 1020.67 1020.56 1020.40 1020.21 1019.99 1019.75 1019.51 1019.27 1019.05 1018.85 1018.66 1018.49 1018.33 1018.15 1017.96 1017.72 1017.44 1017.11 1016.73 1016.31 1015.87 1015.41 1014.95 1014.52 1014.11
1021.92 1021.78 1021.67 1021.59 1021.53 1021.49 1021.44 1021.39 1021.34 1021.27 1021.20 1021.13 1021.06 1021.00 1020.94 1020.89 1020.84 1020.79 1020.71 1020.62 1020.49 1020.33 1020.14 1019.93 1019.70 1019.48 1019.26 1019.07 1018.90 1018.75 1018.62 1018.49 1018.35 1018.19 1017.99 1017.73 1017.42 1017.05 1016.63 1016.17 1015.70 1015.21 1014.74 1014.28
1022.32 1022.23 1022.18 1022.16 1022.15 1022.13 1022.09 1022.03 1021.93 1021.81 1021.66 1021.50 1021.33 1021.17 1021.01 1020.87 1020.74 1020.62 1020.49 1020.36 1020.21 1020.04 1019.86 1019.66 1019.46 1019.26 1019.08 1018.92 1018.79 1018.68 1018.59 1018.50 1018.40 1018.27 1018.09 1017.86 1017.57 1017.20 1016.79 1016.32 1015.82 1015.31 1014.80 1014.30
1022.81 1022.76 1022.75 1022.77 1022.78 1022.77 1022.72 1022.62 1022.47 1022.27 1022.03 1021.77 1021.49 1021.22 1020.96 1020.73 1020.52 1020.32 1020.15 1019.98 1019.81 1019.64 1019.46 1019.28 1019.10 1018.94 1018.79 1018.67 1018.57 1018.50 1018.43 1018.37 1018.30 1018.19 1018.04 1017.82 1017.54 1017.18 1016.76 1016.28 1015.76 1015.22 1014.68 1014.15
1023.33 1023.31 1023.32 1023.34 1023.35 1023.32 1023.24 1023.09 1022.87 1022.59 1022.26 1021.89 1021.52 1021.15 1020.80 1020.48 1020.20 1019.95 1019.73 1019.54 1019.36 1019.19 1019.03 1018.87 1018.72 1018.59 1018.47 1018.38 1018.30 1018.25 1018.20 1018.16 1018.10 1018.00 1017.85 1017.64 1017.36 1017.00 1016.57 1016.08 1015.54 1014.98 1014.41 1013.85
1023.81 1023.80 1023.80 1023.81 1023.79 1023.72 1023.58 1023.37 1023.07 1022.71 1022.30 1021.85 1021.39 1020.94 1020.52 1020.15 1019.82 1019.54 1019.30 1019.10 1018.93 1018.78 1018.64 1018.51 1018.38 1018.27 1018.18 1018.10 1018.04 1017.99 1017.94 1017.90 1017.83 1017.72 1017.57 1017.35 1017.06 1016.69 1016.26 1015.76 1015.21 1014.63 1014.04 1013.45
1024.20 1024.17 1024.15 1024.12 1024.05 1023.92 1023.72 1023.43 1023.06 1022.63 1022.14 1021.63 1021.12 1020.62 1020.17 1019.77 1019.43 1019.14 1018.91 1018.73 1018.58 1018.45 1018.34 1018.23 1018.13 1018.04 1017.95 1017.88 1017.81 1017.75 1017.69 1017.62 1017.54 1017.41 1017.24 1017.01 1016.71 1016.33 1015.89 1015.38 1014.82 1014.22 1013.62 1013.01
1024.47 1024.41 1024.35 1024.27 1024.14 1023.94 1023.66 1023.31 1022.88 1022.39 1021.86 1021.31 1020.77 1020.26 1019.81 1019.41 1019.08 1018.82 1018.62 1018.46 1018.35 1018.25 1018.16 1018.08 1017.99 1017.90 1017.82 1017.73 1017.64 1017.56 1017.47 1017.37 1017.25 1017.10 1016.91 1016.65 1016.33 1015.95 1015.49 1014.98 1014.41 1013.81 1013.18 1012.55
1024.65 1024.56 1024.45 1024.30 1024.10 1023.84 1023.50 1023.09 1022.62 1022.09 1021.54 1020.99 1020.45 1019.96 1019.53 1019.16 1018.87 1018.64 1018.48 1018.36 1018.27 1018.19 1018.12 1018.05 1017.97 1017.87 1017.77 1017.65 1017.53 1017.41 1017.28 1017.14 1016.98 1016.80 1016.57 1016.30 1015.97 1015.57 1015.11 1014.59 1014.01 1013.40 1012.75 1012.09
1024.79 1024.66 1024.51 1024.32 1024.06 1023.75 1023.36 1022.91 1022.42 1021.88 1021.33 1020.79 1020.28 1019.83 1019.43 1019.11 1018.86 1018.67 1018.53 1018.44 1018.37 1018.30 1018.23 1018.15 1018.05 1017.93 1017.79 1017.63 1017.47 1017.30 1017.12 1016.93 1016.73 1016.50 1016.24 1015.95 1015.60 1015.19 1014.72 1014.20 1013.61 1012.98 1012.31 1011.62
Thickness
5659 5666 5668 5668 5669 5669 5665 5660 5656 5663 5669 5680 5684 5686 5689 5691 5693 5694 5694 5695 5697 5696 5696 5697 5697 5697 5696 5696 5696 5695 5694 5692 5690 5688 5687 5686 5685 5685 5683 5682 5682 5681 5680 5680
5652 5661 5663 5661 5666 5666 5665 5664 5663 5665 5667 5677 5680 5680 5681 5683 5685 5686 5687 5689 5690 5691 5690 5689 5689 5689 5689 5688 5689 5689 5687 5686 5684 5683 5681 5680 5679 5678 5677 5676 5675 5675 5674 5674
5636 5647 5652 5647 5658 5660 5660 5663 5661 5658 5666 5671 5671 5672 5673 5676 5678 5680 5681 5682 5682 5683 5683 5683 5683 5683 5683 5683 5683 5681 5680 5679 5678 5677 5676 5675 5674 5672 5671 5670 5670 5669 5668 5667
5624 5634 5629 5646 5659 5662 5658 5657 5659 5660 5662 5663 5664 5665 5667 5670 5671 5672 5674 5675 5675 5675 5675 5675 5675 5676 5676 5676 5675 5674 5674 5673 5672 5671 5670 5669 5668 5666 5665 5664 5664 5663 5662 5661
5611 5617 5626 5641 5650 5652 5649 5648 5653 5653 5655 5656 5658 5659 5659 5664 5665 5666 5666 5667 5667 5667 5668 5668 5668 5668 5668 5668 5668 5667 5666 5666 5665 5664 5663 5662 5660 5658 5658 5657 5657 5656 5655 5655
5605 5611 5613 5631 5645 5651 5647 5639 5648 5648 5647 5648 5650 5646 5649 5655 5657 5657 5658 5658 5659 5659 5659 5660 5660 5659 5659 5659 5659 5659 5660 5659 5658 5657 5656 5654 5653 5651 5651 5651 5650 5649 5649 5648
5599 5602 5611 5628 5639 5642 5630 5634 5643 5642 5641 5641 5640 5641 5644 5647 5648 5649 5650 5650 5651 5651 5651 5652 5653 5652 5651 5651 5651 5653 5653 5652 5650 5649 5649 5648 5645 5644 5643 5643 5642 5641 5641 5641
5590 5594 5604 5626 5629 5626 5627 5634 5635 5635 5635 5635 5634 5636 5637 5639 5640 5640 5641 5643 5643 5643 5643 5644 5645 5645 5644 5644 5645 5645 5645 5644 5643 5642 5641 5640 5637 5635 5635 5635 5634 5633 5633 5633
5591 5598 5609 5616 5620 5624 5625 5626 5627 5627 5628 5628 5628 5628 5629 5631 5632 5633 5634 5634 5635 5635 5635 5636 5636 5637 5637 5637 5637 5637 5637 5636 5634 5634 5632 5630 5628 5627 5627 5627 5626 5625 5626 5626
5586 5596 5604 5609 5613 5616 5618 5619 5621 5621 5622 5622 5621 5622 5622 5623 5623 5624 5626 5626 5626 5626 5627 5628 5628 5629 5630 5630 5630 5630 5629 5628 5626 5625 5623 5622 5621 5621 5620 5620 5619 5619 5619 5620
5581 5591 5598 5604 5605 5608 5610 5612 5613 5614 5615 5615 5615 5615 5615 5615 5615 5616 5617 5618 5618 5619 5619 5620 5621 5622 5623 5623 5622 5621 5621 5620 5619 5618 5616 5615 5615 5614 5614 5614 5614 5614 5614 5614
5579 5587 5588 5593 5599 5602 5602 5603 5604 5605 5606 5607 5608 5608 5609 5609 5609 5610 5610 5611 5611 5612 5612 5614 5615 5616 5616 5616 5615 5614 5613 5612 5611 5610 5609 5609 5608 5608 5608 5608 5608 5608 5609 5609
5579 5584 5584 5589 5592 5594 5595 5596 5597 5598 5598 5599 5600 5602 5603 5603 5603 5603 5604 5605 5606 5606 5607 5607 5608 5609 5610 5609 5609 5608 5607 5606 5605 5604 5603 5602 5602 5602 5602 5602 5602 5602 5602 5602
5577 5577 5579 5583 5585 5588 5589 5590 5590 5591 5591 5592 5593 5594 5595 5595 5596 5597 5598 5600 5600 5600 5600 5600 5601 5603 5604 5604 5603 5602 5601 5601 5599 5598 5597 5597 5596 5597 5597 5597 5596 5596 5596 5595
5574 5575 5575 5578 5580 5581 5583 5583 5583 5582 5583 5584 5585 5586 5587 5588 5589 5590 5592 5593 5593 5593 5593 5593 5594 5596 5597 5598 5597 5596 5595 5595 5594 5593 5593 5592 5591 5591 5591 5591 5590 5590 5590 5589
5571 5572 5572 5573 5574 5575 5576 5576 5575 5575 5576 5576 5577 5578 5579 5580 5581 5583 5584 5586 5586 5585 5587 5588 5589 5590 5591 5592 5591 5591 5590 5590 5589 5588 5587 5586 5585 5585 5585 5584 5584 5584 5584 5583
5565 5565 5566 5567 5569 5569 5570 5570 5569 5569 5569 5569 5569 5571 5572 5573 5575 5576 5577 5578 5579 5580 5582 5582 5583 5585 5586 5586 5586 5586 5585 5584 5584 5583 5581 5580 5579 5578 5578 5578 5578 5578 5577 5577
5565 5565 5565 5565 5565 5564 5564 5564 5563 5563 5562 5563 5564 5565 5565 5566 5567 5568 5569 5571 5573 5575 5576 5576 5578 5579 5580 5581 5581 5580 5579 5579 5577 5576 5575 5574 5573 5573 5572 5572 5572 5572 5571 5571
5562 5561 5561 5561 5560 5560 5559 5558 5557 5556 5556 5557 5557 5557 5558 5559 5560 5561 5562 5564 5565 5566 5568 5570 5571 5573 5574 5574 5575 5574 5573 5573 5571 5570 5569 5567 5566 5566 5566 5566 5566 5565 5565 5564
5558 5557 5557 5556 5555 5553 5552 5552 5551 5551 5551 5551 5551 5551 5552 5553 5554 5555 5555 5556 5557 5559 5561 5563 5565 5566 5566 5567 5567 5567 5566 5566 5565 5564 5562 5561 5561 5560 5560 5560 5559 5559 5558 5557
5552 5552 5551 5549 5548 5547 5546 5545 5545 5545 5545 5545 5545 5545 5545 5546 5548 5548 5549 5550 5551 5553 5555 5557 5558 5558 5558 5560 5559 5559 5559 5559 5558 5557 5556 5555 5554 5554 5553 5553 5553 5552 5552 5551
5546 5545 5544 5542 5541 5539 5538 5538 5538 5539 5539 5539 5539 5539 5539 5539 5540 5541 5542 5543 5545 5547 5549 5550 5550 5550 5551 5552 5551 5551 5551 5551 5551 5550 5549 5548 5548 5547 5546 5545 5545 5545 5544 5544
5541 5539 5538 5536 5535 5533 5532 5532 5532 5532 5532 5532 5532 5532 5533 5533 5533 5534 5535 5536 5538 5540 5541 5542 5543 5543 5544 5545 5544 5543 5543 5543 5543 5543 5542 5540 5540 5539 5538 5538 5538 5537 5536 5535
5536 5534 5532 5531 5530 5528 5526 5526 5525 5525 5526 5526 5526 5527 5527 5527 5527 5528 5529 5531 5532 5533 5534 5534 5535 5535 5536 5536 5536 5535 5535 5535 5535 5535 5534 5533 5532 5531 5531 5530 5530 5529 5528 5527
5530 5529 5527 5525 5524 5523 5522 5520 5520 5520 5520 5520 5521 5521 5522 5522 5522 5523 5524 5525 5525 5526 5527 5527 5527 5528 5528 5527 5527 5527 5527 5527 5527 5527 5526 5526 5525 5524 5523 5522 5521 5520 5519 5518
5525 5523 5521 5520 5519 5518 5517 5516 5515 5515 5515 5515 5516 5517 5517 5518 5518 5518 5518 5519 5519 5519 5519 5519 5519 5519 5519 5519 5519 5519 5519 5519 5518 5518 5518 5518 5517 5516 5515 5514 5513 5512 5511 5510
5520 5518 5516 5516 5515 5514 5513 5512 5512 5511 5511 5512 5511 5511 5512 5512 5513 5512 5512 5512 5512 5512 5512 5512 5511 5511 5511 5511 5511 5511 5510 5510 5510 5510 5510 5509 5509 5507 5506 5505 5504 5503 5502 5501